OBJECT C, 62727

Orbit data source: Space-Track

You're viewing an Uncataloged Satellite

Recently launched and/or uncataloged satellites may have evolving metadata. Metadata may include but not limited to: Owner, Maufacturer, Bus, Motor, and Mission.

OBJECT C, 62727 is a Chinese satellite in SSO that was launched on Fri, 17 Jan 2025 UTC via a CHANG ZHENG 2D launch vehicle from the Jiuquan Satellite Launch Center, China (JSC). Unknown objects in Earth's orbit typically refer to objects detected orbiting the Earth but have not yet been identified or cataloged. These objects could be anything from previously untracked satellites, spent rocket stages, debris from satellite collisions, or even natural meteoroids temporarily captured by Earth's gravity.

Loading next visibility...
Identifier
62727, 2025-012C
Orbit
SSO
Last TLE update
7 hours ago
Origin
Flag of CNHANGZ (CN / PRC)
Manufacturer
Shikong Daoyu
Mission
Operational Civil Imaging
Bus & Motor
LANTAN, Unknown motor
Mass
66 kg wet, 66 kg dry
Launch date (UTC)
2025-01-17 (6 months ago)
Launch vehicle
CHANG ZHENG 2D
Launch site
Jiuquan Satellite Launch Center, China (JSC)
Object type
Unknown
Shape & HBR
Box + 2 Pan, 2 m
Radar Cross Section
0.583 m², Large (>1 m²)

Expand to show TLE details & history

TLE from 7 hours ago
0 OBJECT C
1 62727U 25012C   25192.21710735  .00005100  00000-0  24723-3 0  9996
2 62727  97.4631 265.6188 0009201  32.7675 327.4128 15.18932771 26508
Epoch: 2025-07-11T05:12Z
TLE epoch observation values (Epoch: 2025-07-11T05:12:38.075Z)
Latitude
-0.00003°
Longitude
-101.91205°
Altitude
506.813 km
Speed
7.614 km/s
True Right ascension
17h 42m 28s
True Declination
0° 00' 00"
Sunlit
Object was in full shadow at epoch
Visualization orbit readout
Latitude
70.81058°
Longitude
100.35035°
Altitude
519.761 km
Speed
7.611 km/s
Apparent Right ascension
10h 49m 42s
Apparent Declination
22° 28' 18"
Sunlit
Object is in daylight
Visualization observer readout
Local Sidereal Time
00:18:33
Azimuth
22.531° NE
Elevation
-24.26°
Doppler factor
1
Orbital elements
Apogee altitude
512.369 km
Perigee altitude
499.7 km
Semi-major axis
6,884.171 km
Eccentricity
0.00092
Inclination
97.4631°
RAAN
265.6188°
Arg. of periapsis
32.7675°
True anomaly
Unknown
Mean anomaly
327.4128°
Eccentric anomaly
Unknown
Mean motion
3.79984 °/min
Orbital period
94.74 mins
BSTAR
0.00024723
Loading maneuver chart data...
Loading SW <> Apogee altitude chart data...
Loading historical data...
Loading historical data...
Loading historical data...
Loading historical data...
Loading historical data...
Loading historical data...
Loading historical data...
Other satellites on launch #12 in the year 2025 (2025-01-17 UTC)

OBJECT C Visibility forecast

Observer location: undefined°, undefined°

Span
Click to sort rows by Start time (UTC) header in descending order
Start Az.
Max El. time (UTC)
Max El. Az.
Max El.
End time (UTC)
End Az.
4 mins2025-07-11 16:51:25.517Z52.837° ENE2025-07-11 16:53:25.517Z85.662° E15.837°2025-07-11 16:55:25.517Z123.52° SE
4 mins2025-07-11 18:26:25.517Z325.16° NNW2025-07-11 18:27:25.517Z299.382° NW25.42°2025-07-11 18:30:25.517Z232.918° WSW
5 mins2025-07-12 05:04:25.517Z177.652° S2025-07-12 05:06:25.517Z307.278° NW42.911°2025-07-12 05:09:25.517Z344.125° N
|